EDT,Max TemperatureF,Mean TemperatureF,Min TemperatureF,Max Dew PointF,MeanDew PointF,Min DewpointF,Max Humidity, Mean Humidity, Min Humidity, Max Sea Level PressureIn, Mean Sea Level PressureIn, Min Sea Level PressureIn, Max VisibilityMiles, Mean VisibilityMiles, Min VisibilityMiles, Max Wind SpeedMPH, Mean Wind SpeedMPH, Max Gust SpeedMPH,PrecipitationIn, CloudCover, Events, WindDirDegrees
2013-9-1,85,76,68,70,68,65,93,78,57,29.85,29.81,29.77,10,10,10,13,5,,0.00,2,,208
2013-9-2,84,76,68,70,67,58,100,81,53,29.91,29.84,29.79,10,8,2,13,5,,0.00,4,,259
2013-9-3,73,64,56,58,54,50,91,70,51,30.09,30.02,29.93,10,10,2,13,6,17,0.00,1,,350
2013-9-4,82,66,52,58,55,50,95,69,40,30.17,30.13,30.09,10,10,10,9,3,,0.00,0,,212
2013-9-5,84,70,57,63,57,47,96,64,38,30.22,30.18,30.13,10,10,10,12,4,,0.00,0,,355
2013-9-6,80,66,51,51,46,40,91,53,25,30.28,30.20,30.13,10,9,2,9,3,,0.00,0,,58
2013-9-7,86,70,53,64,56,48,82,64,42,30.12,30.05,29.96,10,10,10,10,3,,0.00,1,,228
2013-9-8,88,76,66,68,65,63,92,72,48,30.02,29.99,29.96,10,10,2,14,4,,0.00,1,,37
2013-9-9,91,78,64,69,66,63,94,68,43,30.05,30.01,29.96,10,9,0,16,7,23,0.00,1,,160
2013-9-10,95,84,73,75,72,69,87,68,46,30.13,30.09,30.02,10,10,7,15,8,16,0.00,1,Rain-Thunderstorm,197
2013-9-11,93,82,71,71,69,64,88,66,42,30.16,30.09,30.01,10,10,10,14,8,,0.01,0,,209
2013-9-12,79,72,64,70,67,60,100,86,52,30.02,29.95,29.87,10,8,2,15,7,25,0.53,5,Rain-Thunderstorm,252
2013-9-13,66,59,52,58,47,41,87,67,44,30.11,30.05,29.96,10,10,10,15,9,24,0.01,3,,342
2013-9-14,70,56,41,47,43,40,95,70,32,30.21,30.15,30.12,10,9,0,7,3,,0.00,0,Fog,338
2013-9-15,75,59,44,57,47,43,93,73,36,30.17,30.12,30.05,10,8,2,14,2,,0.05,2,Fog-Rain,275
2013-9-16,69,63,55,57,55,49,100,83,51,30.32,30.21,30.12,10,9,3,16,8,,0.08,6,Rain,21
2013-9-17,75,62,49,53,50,47,94,68,40,30.36,30.29,30.20,10,10,8,9,7,,0.00,0,,77
2013-9-18,80,68,57,65,57,52,94,66,42,30.18,30.13,30.06,10,10,9,9,4,,0.00,2,Rain,152
2013-9-19,79,72,65,70,66,64,100,89,65,30.10,30.06,29.98,10,7,1,10,5,,0.49,6,Rain-Thunderstorm,178
2013-9-20,86,76,66,70,68,66,100,88,55,30.01,29.89,29.79,10,7,2,25,8,33,1.25,5,Rain-Thunderstorm,191
2013-9-21,73,64,56,68,57,48,100,77,49,29.90,29.79,29.71,10,9,4,15,7,22,0.74,5,Rain,308
2013-9-22,65,56,48,49,46,43,91,70,44,30.05,29.99,29.91,10,10,8,12,6,17,0.00,0,,354
2013-9-23,68,56,44,48,45,43,93,72,42,30.15,30.10,30.06,10,10,5,9,4,,0.00,0,Fog,65
2013-9-24,72,58,44,48,45,42,90,67,36,30.14,30.05,29.97,10,10,10,7,4,,0.00,0,,50
2013-9-25,72,61,50,54,50,47,90,72,42,29.97,29.94,29.91,10,10,10,9,3,,0.00,2,,34
2013-9-26,79,62,46,58,51,45,100,76,34,30.10,30.02,29.95,10,8,1,9,1,,0.00,0,Fog-Rain,27
2013-9-27,79,64,48,55,50,43,94,67,28,30.21,30.16,30.11,10,9,2,6,1,,0.00,0,Fog-Rain,31
2013-9-28,79,64,50,55,52,48,95,69,37,30.22,30.15,30.07,10,9,2,10,2,,0.00,1,Fog,160
2013-9-29,69,62,56,62,59,53,95,87,68,30.08,30.04,30.02,10,10,7,13,6,,0.06,6,Rain,188
2013-9-30,69,64,58,63,61,58,100,93,79,30.04,30.02,29.97,10,7,1,12,5,,0.01,7,Rain,197